Time,TemperatureF,DewpointF,PressureIn,WindDirection,WindDirectionDegrees,WindSpeedMPH,WindSpeedGustMPH,Humidity,HourlyPrecipIn,Conditions,Clouds,dailyrainin,SoftwareType,DateUTC
2013-10-29 00:02:00,40.6,33.0,29.41,SW,227,7.7,11.5,74,0.00,RA,,0.00,WeatherDisplay:10.37,2013-10-29 08:02:00,
2013-10-29 00:07:00,40.7,33.1,29.41,SSW,210,8.9,12.7,74,0.00,RA,,0.00,WeatherDisplay:10.37,2013-10-29 08:07:00,
2013-10-29 00:12:00,40.8,33.2,29.41,SW,215,11.5,20.7,74,0.00,CLR,,0.00,WeatherDisplay:10.37,2013-10-29 08:12:00,
2013-10-29 00:18:00,40.9,33.2,29.41,SW,220,9.6,16.1,74,0.00,CLR,,0.00,WeatherDisplay:10.37,2013-10-29 08:18:00,
2013-10-29 00:22:00,41.2,33.2,29.42,SSW,202,11.8,17.3,73,0.00,CLR,,0.00,WeatherDisplay:10.37,2013-10-29 08:22:00,
2013-10-29 00:28:00,41.4,33.4,29.42,SW,224,9.4,15.3,73,0.00,CLR,,0.00,WeatherDisplay:10.37,2013-10-29 08:28:00,
2013-10-29 00:33:00,41.5,33.1,29.42,SW,220,9.9,15.0,72,0.00,CLR,,0.00,WeatherDisplay:10.37,2013-10-29 08:33:00,
2013-10-29 00:38:00,41.7,33.3,29.43,SSW,195,11.3,16.1,72,0.00,CLR,,0.00,WeatherDisplay:10.37,2013-10-29 08:38:00,
2013-10-29 00:43:00,41.7,33.0,29.43,SW,217,10.4,13.8,71,0.00,CLR,,0.00,WeatherDisplay:10.37,2013-10-29 08:43:00,
2013-10-29 00:48:00,41.7,33.3,29.43,SW,230,10.9,17.3,72,0.00,CLR,,0.00,WeatherDisplay:10.37,2013-10-29 08:48:00,
2013-10-29 00:53:00,41.5,33.1,29.43,SW,215,12.9,24.2,72,0.00,CLR,,0.00,WeatherDisplay:10.37,2013-10-29 08:53:00,
2013-10-29 00:58:00,41.4,33.0,29.43,SW,222,11.6,16.1,72,0.00,CLR,,0.00,WeatherDisplay:10.37,2013-10-29 08:58:00,
2013-10-29 01:03:00,41.3,33.0,29.43,SW,232,12.5,20.5,72,0.00,CLR,,0.00,WeatherDisplay:10.37,2013-10-29 09:03:00,
2013-10-29 01:08:00,41.1,32.8,29.44,WSW,247,11.8,18.4,72,0.00,CLR,,0.00,WeatherDisplay:10.37,2013-10-29 09:08:00,
2013-10-29 01:13:00,41.2,32.2,29.44,SW,230,11.9,18.4,70,0.00,CLR,,0.00,WeatherDisplay:10.37,2013-10-29 09:13:00,
2013-10-29 01:18:00,41.3,31.9,29.44,SW,220,18.8,27.6,69,0.00,CLR,,0.00,WeatherDisplay:10.37,2013-10-29 09:18:00,
2013-10-29 01:23:00,41.6,31.8,29.44,SW,229,13.4,19.6,68,0.00,CLR,,0.00,WeatherDisplay:10.37,2013-10-29 09:23:00,
2013-10-29 01:28:00,41.6,31.8,29.44,SSW,203,15.1,26.5,68,0.00,CLR,,0.00,WeatherDisplay:10.37,2013-10-29 09:28:00,
2013-10-29 01:33:00,41.6,31.4,29.44,SW,236,14.5,21.9,67,0.00,CLR,,0.00,WeatherDisplay:10.37,2013-10-29 09:33:00,
2013-10-29 01:38:00,41.6,31.8,29.44,WSW,237,12.2,16.5,68,0.00,CLR,,0.00,WeatherDisplay:10.37,2013-10-29 09:38:00,
2013-10-29 01:43:00,41.7,31.5,29.44,South,179,14.5,21.9,67,0.00,CLR,,0.00,WeatherDisplay:10.37,2013-10-29 09:43:00,
2013-10-29 01:48:00,42.0,31.8,29.45,SSW,206,12.4,21.9,67,0.00,CLR,,0.00,WeatherDisplay:10.37,2013-10-29 09:48:00,
2013-10-29 01:53:00,41.7,31.2,29.45,SSW,203,13.5,23.0,66,0.00,CLR,,0.00,WeatherDisplay:10.37,2013-10-29 09:53:00,
2013-10-29 01:58:00,41.7,31.2,29.45,SW,219,18.2,27.6,66,0.00,CLR,,0.00,WeatherDisplay:10.37,2013-10-29 09:58:00,
2013-10-29 02:03:00,42.0,31.5,29.45,SSW,206,12.3,27.6,66,0.00,CLR,,0.00,WeatherDisplay:10.37,2013-10-29 10:03:00,
2013-10-29 02:08:00,41.9,31.4,29.45,SSW,212,12.7,21.9,66,0.00,CLR,,0.00,WeatherDisplay:10.37,2013-10-29 10:08:00,
2013-10-29 02:13:00,41.8,30.9,29.45,SSW,198,11.3,26.5,65,0.00,CLR,,0.00,WeatherDisplay:10.37,2013-10-29 10:13:00,
2013-10-29 02:18:00,42.0,31.1,29.46,SW,217,11.9,20.7,65,0.00,CLR,,0.00,WeatherDisplay:10.37,2013-10-29 10:18:00,
2013-10-29 02:23:00,41.8,30.5,29.45,SW,222,10.2,15.0,64,0.00,CLR,,0.00,WeatherDisplay:10.37,2013-10-29 10:23:00,
2013-10-29 02:28:00,42.1,30.8,29.46,SW,226,12.4,23.0,64,0.00,CLR,,0.00,WeatherDisplay:10.37,2013-10-29 10:28:00,
2013-10-29 02:33:00,42.0,30.7,29.46,SW,230,13.1,23.0,64,0.00,CLR,,0.00,WeatherDisplay:10.37,2013-10-29 10:33:00,
2013-10-29 02:38:00,41.9,30.2,29.46,WSW,244,19.8,31.6,63,0.00,CLR,,0.00,WeatherDisplay:10.37,2013-10-29 10:38:00,
2013-10-29 02:43:00,42.1,30.0,29.46,SW,215,14.4,20.7,62,0.00,CLR,,0.00,WeatherDisplay:10.37,2013-10-29 10:43:00,
2013-10-29 02:48:00,42.1,30.0,29.46,SSW,212,10.5,23.0,62,0.00,CLR,,0.00,WeatherDisplay:10.37,2013-10-29 10:48:00,
2013-10-29 02:53:00,42.0,30.3,29.47,SSW,195,12.3,23.0,63,0.00,CLR,,0.00,WeatherDisplay:10.37,2013-10-29 10:53:00,
2013-10-29 02:58:00,42.0,30.3,29.47,SW,215,7.2,11.5,63,0.00,CLR,,0.00,WeatherDisplay:10.37,2013-10-29 10:58:00,
2013-10-29 03:03:00,41.9,30.2,29.47,SW,226,11.4,17.3,63,0.00,CLR,,0.00,WeatherDisplay:10.37,2013-10-29 11:03:00,
2013-10-29 03:08:00,41.8,30.5,29.47,SSW,203,13.5,27.5,64,0.00,CLR,,0.00,WeatherDisplay:10.37,2013-10-29 11:08:00,
2013-10-29 03:13:00,41.9,30.2,29.47,SW,217,11.2,25.3,63,0.00,CLR,,0.00,WeatherDisplay:10.37,2013-10-29 11:13:00,
2013-10-29 03:18:00,41.7,30.0,29.47,South,172,12.8,29.9,63,0.00,CLR,,0.00,WeatherDisplay:10.37,2013-10-29 11:18:00,
2013-10-29 03:23:00,42.3,30.2,29.47,WSW,251,12.6,29.9,62,0.00,CLR,,0.00,WeatherDisplay:10.37,2013-10-29 11:23:00,
2013-10-29 03:28:00,42.2,30.1,29.47,SW,236,13.6,28.3,62,0.00,CLR,,0.00,WeatherDisplay:10.37,2013-10-29 11:28:00,
2013-10-29 03:33:00,42.0,29.9,29.47,WSW,244,11.3,17.6,62,0.00,CLR,,0.00,WeatherDisplay:10.37,2013-10-29 11:33:00,
2013-10-29 03:38:00,41.9,30.2,29.48,WSW,246,12.4,23.0,63,0.00,CLR,,0.00,WeatherDisplay:10.37,2013-10-29 11:38:00,
2013-10-29 03:43:00,41.9,29.8,29.48,SW,215,10.7,20.7,62,0.00,CLR,,0.00,WeatherDisplay:10.37,2013-10-29 11:43:00,
2013-10-29 03:48:00,41.8,29.7,29.48,SW,216,11.0,16.1,62,0.00,CLR,,0.00,WeatherDisplay:10.37,2013-10-29 11:48:00,
2013-10-29 03:53:00,41.7,29.6,29.48,SW,220,11.8,18.4,62,0.00,CLR,,0.00,WeatherDisplay:10.37,2013-10-29 11:53:00,
2013-10-29 03:58:00,42.0,30.3,29.49,South,181,10.6,25.3,63,0.00,CLR,,0.00,WeatherDisplay:10.37,2013-10-29 11:58:00,
2013-10-29 04:03:00,42.1,29.6,29.49,WSW,247,7.4,12.7,61,0.00,CLR,,0.00,WeatherDisplay:10.37,2013-10-29 12:03:00,
2013-10-29 04:08:00,41.9,29.8,29.49,SW,220,11.1,13.8,62,0.00,CLR,,0.00,WeatherDisplay:10.37,2013-10-29 12:08:00,
2013-10-29 04:13:00,41.8,29.3,29.49,SSW,205,6.4,6.9,61,0.00,CLR,,0.00,WeatherDisplay:10.37,2013-10-29 12:13:00,
2013-10-29 04:18:00,41.7,29.6,29.50,SW,233,4.5,13.4,62,0.00,CLR,,0.00,WeatherDisplay:10.37,2013-10-29 12:18:00,
2013-10-29 04:23:00,41.7,30.0,29.50,SW,227,7.0,9.9,63,0.00,CLR,,0.00,WeatherDisplay:10.37,2013-10-29 12:23:00,
2013-10-29 04:28:00,41.4,29.7,29.50,SW,234,12.1,18.4,63,0.00,CLR,,0.00,WeatherDisplay:10.37,2013-10-29 12:28:00,
2013-10-29 04:33:00,41.4,29.3,29.50,WSW,240,11.1,15.0,62,0.00,CLR,,0.00,WeatherDisplay:10.37,2013-10-29 12:33:00,
2013-10-29 04:38:00,41.6,29.5,29.50,SW,234,9.0,16.1,62,0.00,CLR,,0.00,WeatherDisplay:10.37,2013-10-29 12:38:00,
2013-10-29 04:43:00,41.6,29.5,29.50,SSW,199,8.6,18.4,62,0.00,CLR,,0.00,WeatherDisplay:10.37,2013-10-29 12:43:00,
2013-10-29 04:48:00,41.5,29.4,29.50,WSW,237,11.8,13.8,62,0.00,CLR,,0.00,WeatherDisplay:10.37,2013-10-29 12:48:00,
2013-10-29 04:53:00,41.4,29.7,29.50,SSW,205,5.9,16.1,63,0.00,CLR,,0.00,WeatherDisplay:10.37,2013-10-29 12:53:00,
2013-10-29 04:58:00,41.4,29.3,29.50,SW,236,8.0,15.0,62,0.00,CLR,,0.00,WeatherDisplay:10.37,2013-10-29 12:58:00,
2013-10-29 05:03:00,41.2,29.2,29.50,SW,215,6.8,15.0,62,0.00,CLR,,0.00,WeatherDisplay:10.37,2013-10-29 13:03:00,
2013-10-29 05:08:00,41.1,29.5,29.50,SSW,210,7.8,10.4,63,0.00,CLR,,0.00,WeatherDisplay:10.37,2013-10-29 13:08:00,
2013-10-29 05:13:00,41.0,29.4,29.50,SW,217,6.3,18.4,63,0.00,CLR,,0.00,WeatherDisplay:10.37,2013-10-29 13:13:00,
2013-10-29 05:18:00,40.9,29.3,29.50,SSW,198,5.3,13.8,63,0.00,CLR,,0.00,WeatherDisplay:10.37,2013-10-29 13:18:00,
2013-10-29 05:23:00,41.0,29.0,29.50,WSW,241,7.9,11.5,62,0.00,CLR,,0.00,WeatherDisplay:10.37,2013-10-29 13:23:00,
2013-10-29 05:28:00,41.0,29.4,29.51,SW,216,6.1,9.2,63,0.00,CLR,,0.00,WeatherDisplay:10.37,2013-10-29 13:28:00,
2013-10-29 05:33:00,40.9,28.9,29.51,SSW,205,7.8,12.7,62,0.00,CLR,,0.00,WeatherDisplay:10.37,2013-10-29 13:33:00,
2013-10-29 05:39:00,40.8,29.2,29.51,SSW,192,3.4,9.2,63,0.00,CLR,,0.00,WeatherDisplay:10.37,2013-10-29 13:39:00,
2013-10-29 05:44:00,40.7,29.1,29.51,SSE,154,5.7,6.9,63,0.00,CLR,,0.00,WeatherDisplay:10.37,2013-10-29 13:44:00,
2013-10-29 05:49:00,40.6,29.4,29.51,SSW,198,6.0,9.2,64,0.00,CLR,,0.00,WeatherDisplay:10.37,2013-10-29 13:49:00,
2013-10-29 05:54:00,40.6,29.4,29.51,South,178,7.0,9.2,64,0.00,CLR,,0.00,WeatherDisplay:10.37,2013-10-29 13:54:00,
2013-10-29 05:59:00,40.4,29.6,29.51,SW,216,6.1,10.4,65,0.00,CLR,,0.00,WeatherDisplay:10.37,2013-10-29 13:59:00,
2013-10-29 06:04:00,40.2,29.7,29.51,SW,215,0.2,4.6,66,0.00,CLR,,0.00,WeatherDisplay:10.37,2013-10-29 14:04:00,
2013-10-29 06:09:00,40.1,29.6,29.51,SSW,192,5.8,6.9,66,0.00,CLR,,0.00,WeatherDisplay:10.37,2013-10-29 14:09:00,
2013-10-29 06:14:00,40.0,29.6,29.51,South,178,4.6,5.8,66,0.00,CLR,,0.00,WeatherDisplay:10.37,2013-10-29 14:14:00,
2013-10-29 06:19:00,40.0,29.6,29.51,SW,222,8.3,13.8,66,0.00,CLR,,0.00,WeatherDisplay:10.37,2013-10-29 14:19:00,
2013-10-29 06:24:00,40.0,29.6,29.51,SSW,209,5.2,11.5,66,0.00,CLR,,0.00,WeatherDisplay:10.37,2013-10-29 14:24:00,
2013-10-29 06:29:00,40.0,29.9,29.51,SSW,208,7.8,11.5,67,0.00,CLR,,0.00,WeatherDisplay:10.37,2013-10-29 14:29:00,
2013-10-29 06:34:00,39.9,29.8,29.52,SSW,195,2.8,6.9,67,0.00,CLR,,0.00,WeatherDisplay:10.37,2013-10-29 14:34:00,
2013-10-29 06:39:00,39.9,29.8,29.52,SSW,210,5.3,6.9,67,0.00,CLR,,0.00,WeatherDisplay:10.37,2013-10-29 14:39:00,
2013-10-29 06:44:00,39.8,29.7,29.52,SW,223,5.0,10.4,67,0.00,CLR,,0.00,WeatherDisplay:10.37,2013-10-29 14:44:00,
2013-10-29 06:49:00,39.8,30.1,29.52,SSW,199,5.2,8.1,68,0.00,CLR,,0.00,WeatherDisplay:10.37,2013-10-29 14:49:00,
2013-10-29 06:54:00,39.7,30.0,29.52,WSW,237,6.2,6.9,68,0.00,CLR,,0.00,WeatherDisplay:10.37,2013-10-29 14:54:00,
2013-10-29 06:59:00,39.5,29.8,29.52,South,181,1.9,5.8,68,0.00,CLR,,0.00,WeatherDisplay:10.37,2013-10-29 14:59:00,
2013-10-29 07:04:00,39.4,29.7,29.52,SW,230,0.0,0.0,68,0.00,CLR,,0.00,WeatherDisplay:10.37,2013-10-29 15:04:00,
2013-10-29 07:09:00,39.1,29.4,29.52,South,172,0.0,0.0,68,0.00,CLR,,0.00,WeatherDisplay:10.37,2013-10-29 15:09:00,
2013-10-29 07:14:00,38.9,29.2,29.52,South,172,0.0,0.0,68,0.00,CLR,,0.00,WeatherDisplay:10.37,2013-10-29 15:14:00,
2013-10-29 07:19:00,38.7,29.4,29.53,SSW,195,4.3,6.9,69,0.00,CLR,,0.00,WeatherDisplay:10.37,2013-10-29 15:19:00,
2013-10-29 07:24:00,38.3,29.0,29.52,SSW,205,0.0,3.5,69,0.00,CLR,,0.00,WeatherDisplay:10.37,2013-10-29 15:24:00,
2013-10-29 07:29:00,38.2,29.3,29.53,South,179,0.0,0.0,70,0.00,CLR,,0.00,WeatherDisplay:10.37,2013-10-29 15:29:00,
2013-10-29 07:34:00,37.9,29.0,29.53,South,179,0.0,0.0,70,0.00,CLR,,0.00,WeatherDisplay:10.37,2013-10-29 15:34:00,
2013-10-29 07:39:00,37.8,28.9,29.53,South,179,0.0,0.0,70,0.00,CLR,,0.00,WeatherDisplay:10.37,2013-10-29 15:39:00,
2013-10-29 07:44:00,37.7,28.8,29.53,South,179,0.0,0.0,70,0.00,CLR,,0.00,WeatherDisplay:10.37,2013-10-29 15:44:00,
2013-10-29 07:49:00,37.7,28.8,29.53,South,179,0.0,0.0,70,0.00,CLR,,0.00,WeatherDisplay:10.37,2013-10-29 15:49:00,
2013-10-29 07:54:00,37.5,28.6,29.53,South,179,0.0,0.0,70,0.00,CLR,,0.00,WeatherDisplay:10.37,2013-10-29 15:54:00,
2013-10-29 07:59:00,37.2,28.3,29.52,South,179,0.0,0.0,70,0.00,CLR,,0.00,WeatherDisplay:10.37,2013-10-29 15:59:00,
2013-10-29 08:04:00,37.1,28.6,29.52,South,179,0.0,0.0,71,0.00,CLR,,0.00,WeatherDisplay:10.37,2013-10-29 16:04:00,
2013-10-29 08:09:00,36.7,28.2,29.52,South,179,0.0,0.0,71,0.00,CLR,,0.00,WeatherDisplay:10.37,2013-10-29 16:09:00,
2013-10-29 08:14:00,36.6,28.4,29.53,SE,127,6.5,8.3,72,0.00,CLR,,0.00,WeatherDisplay:10.37,2013-10-29 16:14:00,
2013-10-29 08:19:00,36.4,28.2,29.53,SE,124,0.0,4.6,72,0.00,CLR,,0.00,WeatherDisplay:10.37,2013-10-29 16:19:00,
2013-10-29 08:24:00,36.1,28.3,29.53,SE,133,5.7,6.9,73,0.00,CLR,,0.00,WeatherDisplay:10.37,2013-10-29 16:24:00,
2013-10-29 08:29:00,35.9,28.1,29.53,SSW,203,6.3,9.2,73,0.00,CLR,,0.00,WeatherDisplay:10.37,2013-10-29 16:29:00,
2013-10-29 08:34:00,35.7,27.9,29.53,SE,126,3.6,5.8,73,0.00,CLR,,0.00,WeatherDisplay:10.37,2013-10-29 16:34:00,
2013-10-29 08:39:00,35.5,27.7,29.53,SSE,147,0.0,0.0,73,0.00,CLR,,0.00,WeatherDisplay:10.37,2013-10-29 16:39:00,
2013-10-29 08:44:00,35.6,28.1,29.54,SW,223,0.0,0.0,74,0.00,CLR,,0.00,WeatherDisplay:10.37,2013-10-29 16:44:00,
2013-10-29 08:49:00,35.4,27.9,29.54,SW,223,0.0,0.0,74,0.00,CLR,,0.00,WeatherDisplay:10.37,2013-10-29 16:49:00,
2013-10-29 08:54:00,35.5,28.0,29.54,SW,223,0.0,0.0,74,0.00,CLR,,0.00,WeatherDisplay:10.37,2013-10-29 16:54:00,
2013-10-29 08:59:00,35.3,27.8,29.54,SW,223,0.0,0.0,74,0.00,CLR,,0.00,WeatherDisplay:10.37,2013-10-29 16:59:00,
2013-10-29 09:04:00,35.3,27.8,29.54,ENE,73,6.2,6.9,74,0.00,CLR,,0.00,WeatherDisplay:10.37,2013-10-29 17:04:00,
2013-10-29 09:09:00,35.2,27.7,29.54,ENE,71,0.0,0.0,74,0.00,CLR,,0.00,WeatherDisplay:10.37,2013-10-29 17:09:00,
2013-10-29 09:14:00,35.1,27.6,29.54,ENE,71,0.0,0.0,74,0.00,CLR,,0.00,WeatherDisplay:10.37,2013-10-29 17:14:00,
2013-10-29 09:19:00,34.8,27.4,29.54,ENE,71,0.0,0.0,74,0.00,CLR,,0.00,WeatherDisplay:10.37,2013-10-29 17:19:00,
2013-10-29 09:24:00,34.5,27.1,29.54,ESE,110,0.0,0.0,74,0.00,CLR,,0.00,WeatherDisplay:10.37,2013-10-29 17:24:00,
2013-10-29 09:29:00,34.4,27.3,29.54,East,90,0.7,5.0,75,0.00,CLR,,0.00,WeatherDisplay:10.37,2013-10-29 17:29:00,
2013-10-29 09:34:00,34.2,27.1,29.54,ESE,116,0.0,0.0,75,0.00,CLR,,0.00,WeatherDisplay:10.37,2013-10-29 17:34:00,
2013-10-29 09:39:00,34.4,27.3,29.54,NE,56,6.6,6.9,75,0.00,CLR,,0.00,WeatherDisplay:10.37,2013-10-29 17:39:00,
2013-10-29 09:44:00,34.5,27.4,29.54,NE,52,0.0,6.9,75,0.00,CLR,,0.00,WeatherDisplay:10.37,2013-10-29 17:44:00,
2013-10-29 09:49:00,34.7,27.6,29.54,NNE,31,0.0,0.0,75,0.00,CLR,,0.00,WeatherDisplay:10.37,2013-10-29 17:49:00,
2013-10-29 09:54:00,35.0,27.5,29.54,NNE,31,0.0,0.0,74,0.00,CLR,,0.00,WeatherDisplay:10.37,2013-10-29 17:54:00,
2013-10-29 09:59:00,35.1,27.6,29.54,NNE,31,0.0,0.0,74,0.00,CLR,,0.00,WeatherDisplay:10.37,2013-10-29 17:59:00,
2013-10-29 10:04:00,35.2,27.7,29.55,NNE,31,0.0,0.0,74,0.00,CLR,,0.00,WeatherDisplay:10.37,2013-10-29 18:04:00,
2013-10-29 10:09:00,35.2,27.7,29.55,NNE,31,0.0,0.0,74,0.00,CLR,,0.00,WeatherDisplay:10.37,2013-10-29 18:09:00,
2013-10-29 10:14:00,34.9,27.5,29.55,NNE,31,0.0,0.0,74,0.00,CLR,,0.00,WeatherDisplay:10.37,2013-10-29 18:14:00,
2013-10-29 10:19:00,34.8,27.4,29.55,NNE,31,0.0,0.0,74,0.00,CLR,,0.00,WeatherDisplay:10.37,2013-10-29 18:19:00,
2013-10-29 10:24:00,34.9,27.5,29.55,NNE,31,0.0,0.0,74,0.00,CLR,,0.00,WeatherDisplay:10.37,2013-10-29 18:24:00,
2013-10-29 10:29:00,35.3,27.8,29.55,NNE,31,0.0,0.0,74,0.00,CLR,,0.00,WeatherDisplay:10.37,2013-10-29 18:29:00,
2013-10-29 10:34:00,35.5,28.0,29.55,NNE,31,0.0,0.0,74,0.00,CLR,,0.00,WeatherDisplay:10.37,2013-10-29 18:34:00,
2013-10-29 10:39:00,35.6,28.1,29.55,NNE,31,0.0,0.0,74,0.00,CLR,,0.00,WeatherDisplay:10.37,2013-10-29 18:39:00,
2013-10-29 10:44:00,35.8,28.3,29.55,NNE,31,0.0,0.0,74,0.00,CLR,,0.00,WeatherDisplay:10.37,2013-10-29 18:44:00,
2013-10-29 10:49:00,35.9,28.4,29.55,NNE,31,0.0,0.0,74,0.00,CLR,,0.00,WeatherDisplay:10.37,2013-10-29 18:49:00,
2013-10-29 10:54:00,36.1,28.3,29.55,NNE,31,0.0,0.0,73,0.00,CLR,,0.00,WeatherDisplay:10.37,2013-10-29 18:54:00,
2013-10-29 11:00:00,36.1,28.3,29.55,NNE,31,0.0,0.0,73,0.00,CLR,,0.00,WeatherDisplay:10.37,2013-10-29 19:00:00,
2013-10-29 11:05:00,36.2,28.4,29.56,NNE,31,0.0,0.0,73,0.00,CLR,,0.00,WeatherDisplay:10.37,2013-10-29 19:05:00,
2013-10-29 11:10:00,36.5,28.7,29.56,NNE,31,0.0,0.0,73,0.00,CLR,,0.00,WeatherDisplay:10.37,2013-10-29 19:10:00,
2013-10-29 11:15:00,36.7,28.9,29.56,NNE,31,0.0,0.0,73,0.00,CLR,,0.00,WeatherDisplay:10.37,2013-10-29 19:15:00,
2013-10-29 11:20:00,36.9,29.1,29.56,NNE,31,0.0,0.0,73,0.00,CLR,,0.00,WeatherDisplay:10.37,2013-10-29 19:20:00,
2013-10-29 11:25:00,36.9,28.7,29.56,NNE,31,0.0,0.0,72,0.00,CLR,,0.00,WeatherDisplay:10.37,2013-10-29 19:25:00,
2013-10-29 11:30:00,37.0,28.8,29.56,NNE,31,0.0,0.0,72,0.00,CLR,,0.00,WeatherDisplay:10.37,2013-10-29 19:30:00,
2013-10-29 11:35:00,37.3,28.8,29.56,NNE,31,0.0,0.0,71,0.00,CLR,,0.00,WeatherDisplay:10.37,2013-10-29 19:35:00,
2013-10-29 11:40:00,37.5,29.3,29.56,NNE,31,0.0,0.0,72,0.00,CLR,,0.00,WeatherDisplay:10.37,2013-10-29 19:40:00,
2013-10-29 11:45:00,37.7,29.1,29.56,NNE,31,0.0,0.0,71,0.00,CLR,,0.00,WeatherDisplay:10.37,2013-10-29 19:45:00,
2013-10-29 11:50:00,38.0,29.4,29.56,NNE,31,0.0,0.0,71,0.00,CLR,,0.00,WeatherDisplay:10.37,2013-10-29 19:50:00,
2013-10-29 11:55:00,38.2,29.3,29.56,NNE,31,0.0,0.0,70,0.00,CLR,,0.00,WeatherDisplay:10.37,2013-10-29 19:55:00,
2013-10-29 12:00:00,38.6,29.3,29.56,NNE,31,0.0,0.0,69,0.00,CLR,,0.00,WeatherDisplay:10.37,2013-10-29 20:00:00,
2013-10-29 12:05:00,38.9,29.6,29.56,NNE,31,0.0,0.0,69,0.00,CLR,,0.00,WeatherDisplay:10.37,2013-10-29 20:05:00,
2013-10-29 12:10:00,39.1,29.4,29.56,NNE,31,0.0,0.0,68,0.00,CLR,,0.00,WeatherDisplay:10.37,2013-10-29 20:10:00,
2013-10-29 12:15:00,39.6,29.5,29.56,NNE,31,0.0,0.0,67,0.00,CLR,,0.00,WeatherDisplay:10.37,2013-10-29 20:15:00,
2013-10-29 12:20:00,40.0,29.6,29.56,NNE,31,0.0,0.0,66,0.00,CLR,,0.00,WeatherDisplay:10.37,2013-10-29 20:20:00,
2013-10-29 12:25:00,40.3,29.5,29.56,North,3,0.0,0.0,65,0.00,CLR,,0.00,WeatherDisplay:10.37,2013-10-29 20:25:00,
2013-10-29 12:30:00,40.6,29.4,29.56,NNW,339,1.9,6.9,64,0.00,CLR,,0.00,WeatherDisplay:10.37,2013-10-29 20:30:00,
2013-10-29 12:35:00,40.6,29.4,29.56,NNW,333,0.3,5.7,64,0.00,CLR,,0.00,WeatherDisplay:10.37,2013-10-29 20:35:00,
2013-10-29 12:40:00,40.9,28.9,29.56,North,360,0.0,0.0,62,0.00,CLR,,0.00,WeatherDisplay:10.37,2013-10-29 20:40:00,
2013-10-29 12:45:00,41.1,29.1,29.56,North,360,0.0,0.0,62,0.00,CLR,,0.00,WeatherDisplay:10.37,2013-10-29 20:45:00,
2013-10-29 12:50:00,41.4,29.3,29.56,North,360,0.0,0.0,62,0.00,CLR,,0.00,WeatherDisplay:10.37,2013-10-29 20:50:00,
2013-10-29 12:55:00,41.4,29.3,29.56,North,360,0.0,0.0,62,0.00,CLR,,0.00,WeatherDisplay:10.37,2013-10-29 20:55:00,
2013-10-29 13:00:00,41.8,28.9,29.56,North,360,0.0,0.0,60,0.00,CLR,,0.00,WeatherDisplay:10.37,2013-10-29 21:00:00,
2013-10-29 13:05:00,42.0,29.1,29.55,North,360,0.0,0.0,60,0.00,CLR,,0.00,WeatherDisplay:10.37,2013-10-29 21:05:00,
2013-10-29 13:10:00,42.3,29.0,29.55,North,360,0.0,0.0,59,0.00,CLR,,0.00,WeatherDisplay:10.37,2013-10-29 21:10:00,
2013-10-29 13:15:00,42.6,29.3,29.55,North,360,0.0,0.0,59,0.00,CLR,,0.00,WeatherDisplay:10.37,2013-10-29 21:15:00,
2013-10-29 13:20:00,42.7,28.9,29.55,North,360,0.0,0.0,58,0.00,CLR,,0.00,WeatherDisplay:10.37,2013-10-29 21:20:00,
2013-10-29 13:25:00,42.8,28.6,29.55,North,360,0.0,0.0,57,0.00,CLR,,0.00,WeatherDisplay:10.37,2013-10-29 21:25:00,
2013-10-29 13:30:00,42.9,28.7,29.55,North,360,0.0,0.0,57,0.00,CLR,,0.00,WeatherDisplay:10.37,2013-10-29 21:30:00,
2013-10-29 13:35:00,43.2,29.0,29.55,WNW,291,0.0,4.6,57,0.00,CLR,,0.00,WeatherDisplay:10.37,2013-10-29 21:35:00,
2013-10-29 13:40:00,42.9,28.3,29.55,WNW,291,0.0,0.0,56,0.00,CLR,,0.00,WeatherDisplay:10.37,2013-10-29 21:40:00,
2013-10-29 13:45:00,43.1,28.5,29.55,NNE,20,0.0,4.6,56,0.00,CLR,,0.00,WeatherDisplay:10.37,2013-10-29 21:45:00,
2013-10-29 13:50:00,43.1,28.5,29.55,NNW,342,5.8,8.1,56,0.00,CLR,,0.00,WeatherDisplay:10.37,2013-10-29 21:50:00,
2013-10-29 13:55:00,43.3,29.1,29.55,NNW,329,0.0,0.0,57,0.00,CLR,,0.00,WeatherDisplay:10.37,2013-10-29 21:55:00,
2013-10-29 14:00:00,43.0,28.8,29.55,NW,319,0.0,0.0,57,0.00,CLR,,0.00,WeatherDisplay:10.37,2013-10-29 22:00:00,
2013-10-29 14:05:00,43.4,28.7,29.55,NW,319,0.0,0.0,56,0.00,CLR,,0.00,WeatherDisplay:10.37,2013-10-29 22:05:00,
2013-10-29 14:10:00,43.6,28.5,29.54,NW,319,0.0,0.0,55,0.00,CLR,,0.00,WeatherDisplay:10.37,2013-10-29 22:10:00,
2013-10-29 14:15:00,43.9,28.8,29.54,NW,319,0.0,0.0,55,0.00,CLR,,0.00,WeatherDisplay:10.37,2013-10-29 22:15:00,
2013-10-29 14:20:00,43.9,28.8,29.54,NW,319,0.0,0.0,55,0.00,CLR,,0.00,WeatherDisplay:10.37,2013-10-29 22:20:00,
2013-10-29 14:25:00,43.5,28.8,29.54,NW,319,0.0,0.0,56,0.00,CLR,,0.00,WeatherDisplay:10.37,2013-10-29 22:25:00,
2013-10-29 14:30:00,43.8,28.7,29.54,NW,319,0.0,0.0,55,0.00,CLR,,0.00,WeatherDisplay:10.37,2013-10-29 22:30:00,
2013-10-29 14:35:00,43.9,28.8,29.54,WNW,285,2.6,5.8,55,0.00,CLR,,0.00,WeatherDisplay:10.37,2013-10-29 22:35:00,
2013-10-29 14:40:00,43.7,28.6,29.54,WNW,285,0.0,0.0,55,0.00,CLR,,0.00,WeatherDisplay:10.37,2013-10-29 22:40:00,
2013-10-29 14:45:00,43.8,29.1,29.54,WNW,285,0.0,0.0,56,0.00,CLR,,0.00,WeatherDisplay:10.37,2013-10-29 22:45:00,
2013-10-29 14:50:00,44.0,28.9,29.54,NNW,332,1.4,3.2,55,0.00,CLR,,0.00,WeatherDisplay:10.37,2013-10-29 22:50:00,
2013-10-29 14:55:00,43.6,28.5,29.54,NNW,332,0.0,0.0,55,0.00,CLR,,0.00,WeatherDisplay:10.37,2013-10-29 22:55:00,
2013-10-29 15:00:00,44.0,28.9,29.54,NNW,332,0.0,0.0,55,0.00,CLR,,0.00,WeatherDisplay:10.37,2013-10-29 23:00:00,
2013-10-29 15:05:00,43.4,27.8,29.54,NNW,332,0.0,0.0,54,0.00,CLR,,0.00,WeatherDisplay:10.37,2013-10-29 23:05:00,
2013-10-29 15:10:00,43.9,28.8,29.54,NNW,332,0.0,0.0,55,0.00,CLR,,0.00,WeatherDisplay:10.37,2013-10-29 23:10:00,
2013-10-29 15:15:00,43.3,28.6,29.54,NW,312,1.0,0.0,56,0.00,CLR,,0.00,WeatherDisplay:10.37,2013-10-29 23:15:00,
2013-10-29 15:20:00,43.2,29.0,29.53,WNW,302,1.8,6.9,57,0.00,CLR,,0.00,WeatherDisplay:10.37,2013-10-29 23:20:00,
2013-10-29 15:25:00,43.1,29.3,29.53,WNW,292,0.6,4.6,58,0.00,CLR,,0.00,WeatherDisplay:10.37,2013-10-29 23:25:00,
2013-10-29 15:30:00,42.9,29.1,29.53,WNW,298,0.0,0.0,58,0.00,CLR,,0.00,WeatherDisplay:10.37,2013-10-29 23:30:00,
2013-10-29 15:35:00,42.7,29.4,29.52,NW,319,6.3,8.1,59,0.00,CLR,,0.00,WeatherDisplay:10.37,2013-10-29 23:35:00,
2013-10-29 15:40:00,42.4,29.5,29.52,NW,319,0.0,0.0,60,0.00,CLR,,0.00,WeatherDisplay:10.37,2013-10-29 23:40:00,
2013-10-29 15:45:00,42.4,29.5,29.52,NNW,329,0.0,0.0,60,0.00,CLR,,0.00,WeatherDisplay:10.37,2013-10-29 23:45:00,
2013-10-29 15:50:00,42.4,29.5,29.52,NNW,328,6.9,8.1,60,0.00,CLR,,0.00,WeatherDisplay:10.37,2013-10-29 23:50:00,
2013-10-29 15:55:00,42.3,29.8,29.51,NW,312,0.0,0.0,61,0.00,CLR,,0.00,WeatherDisplay:10.37,2013-10-29 23:55:00,
2013-10-29 16:00:00,42.3,29.8,29.51,NW,306,2.1,8.1,61,0.00,CLR,,0.00,WeatherDisplay:10.37,2013-10-30 00:00:00,
2013-10-29 16:05:00,42.3,29.8,29.51,NW,309,5.7,6.9,61,0.00,CLR,,0.00,WeatherDisplay:10.37,2013-10-30 00:05:00,
2013-10-29 16:10:00,42.2,29.7,29.51,NW,311,6.2,9.2,61,0.00,CLR,,0.00,WeatherDisplay:10.37,2013-10-30 00:10:00,
2013-10-29 16:15:00,42.3,30.2,29.51,NNW,343,4.3,8.1,62,0.00,CLR,,0.00,WeatherDisplay:10.37,2013-10-30 00:15:00,
2013-10-29 16:20:00,42.2,30.1,29.51,NW,315,7.5,9.2,62,0.00,CLR,,0.00,WeatherDisplay:10.37,2013-10-30 00:20:00,
2013-10-29 16:25:00,42.3,30.2,29.50,North,357,0.0,6.9,62,0.00,CLR,,0.00,WeatherDisplay:10.37,2013-10-30 00:25:00,
2013-10-29 16:30:00,42.2,30.5,29.50,WNW,299,2.1,5.8,63,0.00,CLR,,0.00,WeatherDisplay:10.37,2013-10-30 00:30:00,
2013-10-29 16:35:00,42.2,30.5,29.50,NW,309,4.8,8.1,63,0.00,CLR,,0.00,WeatherDisplay:10.37,2013-10-30 00:35:00,
2013-10-29 16:40:00,42.0,30.3,29.50,North,349,0.5,4.6,63,0.00,CLR,,0.00,WeatherDisplay:10.37,2013-10-30 00:40:00,
2013-10-29 16:45:00,42.2,30.9,29.50,NW,308,0.8,5.8,64,0.00,CLR,,0.00,WeatherDisplay:10.37,2013-10-30 00:45:00,
2013-10-29 16:51:00,41.7,30.4,29.50,NNW,337,0.0,0.0,64,0.00,CLR,,0.00,WeatherDisplay:10.37,2013-10-30 00:51:00,
2013-10-29 16:56:00,41.5,30.2,29.50,NW,309,2.5,5.8,64,0.00,CLR,,0.00,WeatherDisplay:10.37,2013-10-30 00:56:00,
2013-10-29 17:01:00,41.4,30.5,29.49,NW,325,4.3,6.9,65,0.00,CLR,,0.00,WeatherDisplay:10.37,2013-10-30 01:01:00,
2013-10-29 17:06:00,41.2,30.3,29.49,NNW,333,1.3,6.5,65,0.00,CLR,,0.00,WeatherDisplay:10.37,2013-10-30 01:06:00,
2013-10-29 17:11:00,41.1,30.2,29.49,NW,323,5.8,8.1,65,0.00,CLR,,0.00,WeatherDisplay:10.37,2013-10-30 01:11:00,
2013-10-29 17:16:00,40.9,30.4,29.49,WNW,292,4.4,6.9,66,0.00,CLR,,0.00,WeatherDisplay:10.37,2013-10-30 01:16:00,
2013-10-29 17:21:00,40.7,30.2,29.49,NW,312,0.0,0.0,66,0.00,CLR,,0.00,WeatherDisplay:10.37,2013-10-30 01:21:00,
2013-10-29 17:26:00,40.6,30.1,29.49,NW,312,0.0,0.0,66,0.00,CLR,,0.00,WeatherDisplay:10.37,2013-10-30 01:26:00,
2013-10-29 17:31:00,40.5,30.0,29.49,NW,312,0.0,0.0,66,0.00,CLR,,0.00,WeatherDisplay:10.37,2013-10-30 01:31:00,
2013-10-29 17:36:00,40.4,30.3,29.48,NW,312,0.0,0.0,67,0.00,CLR,,0.00,WeatherDisplay:10.37,2013-10-30 01:36:00,
2013-10-29 17:41:00,40.2,30.1,29.48,NW,312,0.0,0.0,67,0.00,CLR,,0.00,WeatherDisplay:10.37,2013-10-30 01:41:00,
2013-10-29 17:46:00,40.0,29.9,29.48,NW,318,4.9,6.9,67,0.00,CLR,,0.00,WeatherDisplay:10.37,2013-10-30 01:46:00,
2013-10-29 17:51:00,39.8,30.1,29.48,NW,311,0.0,0.0,68,0.00,CLR,,0.00,WeatherDisplay:10.37,2013-10-30 01:51:00,
2013-10-29 17:56:00,39.6,30.3,29.48,NNW,335,0.0,0.0,69,0.00,CLR,,0.00,WeatherDisplay:10.37,2013-10-30 01:56:00,
2013-10-29 18:01:00,39.4,29.7,29.48,NNW,335,0.0,0.0,68,0.00,CLR,,0.00,WeatherDisplay:10.37,2013-10-30 02:01:00,
2013-10-29 18:06:00,39.4,30.1,29.47,North,4,0.6,4.6,69,0.00,CLR,,0.00,WeatherDisplay:10.37,2013-10-30 02:06:00,
2013-10-29 18:11:00,39.3,30.3,29.47,North,4,0.0,0.0,70,0.00,CLR,,0.00,WeatherDisplay:10.37,2013-10-30 02:11:00,
2013-10-29 18:16:00,39.4,30.4,29.47,ENE,62,0.2,4.6,70,0.00,CLR,,0.00,WeatherDisplay:10.37,2013-10-30 02:16:00,
2013-10-29 18:21:00,39.3,30.3,29.47,East,85,6.1,9.2,70,0.00,CLR,,0.00,WeatherDisplay:10.37,2013-10-30 02:21:00,
2013-10-29 18:26:00,39.5,29.8,29.47,ESE,102,7.4,11.5,68,0.00,CLR,,0.00,WeatherDisplay:10.37,2013-10-30 02:26:00,
2013-10-29 18:31:00,39.9,29.5,29.46,East,79,7.8,11.5,66,0.00,CLR,,0.00,WeatherDisplay:10.37,2013-10-30 02:31:00,
2013-10-29 18:36:00,40.3,28.7,29.46,East,88,8.5,10.4,63,0.00,CLR,,0.00,WeatherDisplay:10.37,2013-10-30 02:36:00,
2013-10-29 18:41:00,40.5,28.5,29.46,ESE,103,9.7,12.7,62,0.00,CLR,,0.00,WeatherDisplay:10.37,2013-10-30 02:41:00,
2013-10-29 18:46:00,40.6,27.8,29.46,East,85,11.9,17.3,60,0.00,CLR,,0.00,WeatherDisplay:10.37,2013-10-30 02:46:00,
2013-10-29 18:51:00,40.8,28.0,29.45,ESE,107,8.9,11.5,60,0.00,CLR,,0.00,WeatherDisplay:10.37,2013-10-30 02:51:00,
2013-10-29 18:56:00,40.8,28.0,29.45,ESE,120,9.8,13.8,60,0.00,CLR,,0.00,WeatherDisplay:10.37,2013-10-30 02:56:00,
2013-10-29 19:01:00,40.8,28.0,29.45,ENE,71,11.4,13.0,60,0.00,CLR,,0.00,WeatherDisplay:10.37,2013-10-30 03:01:00,
2013-10-29 19:06:00,40.8,28.0,29.45,ENE,69,9.2,13.8,60,0.00,CLR,,0.00,WeatherDisplay:10.37,2013-10-30 03:06:00,
2013-10-29 19:11:00,41.0,27.8,29.45,East,92,9.1,12.7,59,0.00,CLR,,0.00,WeatherDisplay:10.37,2013-10-30 03:11:00,
2013-10-29 19:16:00,40.9,28.1,29.45,ENE,75,9.3,11.5,60,0.00,CLR,,0.00,WeatherDisplay:10.37,2013-10-30 03:16:00,
2013-10-29 19:21:00,40.7,27.5,29.44,East,85,10.3,13.8,59,0.00,CLR,,0.00,WeatherDisplay:10.37,2013-10-30 03:21:00,
2013-10-29 19:26:00,40.7,27.9,29.44,East,89,8.1,12.7,60,0.00,CLR,,0.00,WeatherDisplay:10.37,2013-10-30 03:26:00,
2013-10-29 19:31:00,40.7,27.9,29.44,East,85,11.9,14.5,60,0.00,CLR,,0.00,WeatherDisplay:10.37,2013-10-30 03:31:00,
2013-10-29 19:36:00,40.6,27.4,29.44,East,86,9.4,11.5,59,0.00,CLR,,0.00,WeatherDisplay:10.37,2013-10-30 03:36:00,
2013-10-29 19:41:00,40.6,27.4,29.44,East,83,10.4,16.1,59,0.00,CLR,,0.00,WeatherDisplay:10.37,2013-10-30 03:41:00,
2013-10-29 19:46:00,40.6,27.4,29.44,East,88,9.3,11.5,59,0.00,CLR,,0.00,WeatherDisplay:10.37,2013-10-30 03:46:00,
2013-10-29 19:51:00,40.6,27.0,29.44,East,86,7.0,12.7,58,0.00,CLR,,0.00,WeatherDisplay:10.37,2013-10-30 03:51:00,
2013-10-29 19:56:00,40.6,27.0,29.44,East,99,9.4,13.8,58,0.00,CLR,,0.00,WeatherDisplay:10.37,2013-10-30 03:56:00,
2013-10-29 20:01:00,40.6,26.5,29.43,ENE,73,12.0,15.0,57,0.00,CLR,,0.00,WeatherDisplay:10.37,2013-10-30 04:01:00,
2013-10-29 20:02:00,40.7,26.6,29.43,East,92,10.1,12.7,57,0.00,CLR,,0.00,WeatherDisplay:10.37,2013-10-30 04:02:00,
2013-10-29 20:07:00,40.7,26.6,29.43,East,99,11.4,12.7,57,0.00,CLR,,0.00,WeatherDisplay:10.37,2013-10-30 04:07:00,
2013-10-29 20:12:00,40.6,26.1,29.43,ESE,109,10.4,12.7,56,0.00,CLR,,0.00,WeatherDisplay:10.37,2013-10-30 04:12:00,
2013-10-29 20:17:00,40.7,26.6,29.43,East,82,7.9,12.7,57,0.00,CLR,,0.00,WeatherDisplay:10.37,2013-10-30 04:17:00,
2013-10-29 20:22:00,40.7,26.6,29.43,East,85,9.4,12.7,57,0.00,CLR,,0.00,WeatherDisplay:10.37,2013-10-30 04:22:00,
2013-10-29 20:27:00,40.7,26.6,29.43,ENE,64,5.4,9.2,57,0.00,CLR,,0.00,WeatherDisplay:10.37,2013-10-30 04:27:00,
2013-10-29 20:32:00,40.6,26.5,29.43,ENE,69,9.8,12.7,57,0.00,CLR,,0.00,WeatherDisplay:10.37,2013-10-30 04:32:00,
2013-10-29 20:37:00,40.6,26.5,29.42,ESE,104,7.8,12.2,57,0.00,CLR,,0.00,WeatherDisplay:10.37,2013-10-30 04:37:00,
2013-10-29 20:42:00,40.5,26.4,29.42,ENE,69,9.2,12.7,57,0.00,CLR,,0.00,WeatherDisplay:10.37,2013-10-30 04:42:00,
2013-10-29 20:47:00,40.4,26.8,29.42,East,85,6.7,10.4,58,0.00,CLR,,0.00,WeatherDisplay:10.37,2013-10-30 04:47:00,
2013-10-29 20:52:00,40.2,26.6,29.41,East,88,7.5,11.5,58,0.00,CLR,,0.00,WeatherDisplay:10.37,2013-10-30 04:52:00,
2013-10-29 20:57:00,40.1,26.5,29.41,East,82,8.2,10.4,58,0.00,CLR,,0.00,WeatherDisplay:10.37,2013-10-30 04:57:00,
2013-10-29 21:02:00,40.0,26.8,29.41,East,90,7.5,10.4,59,0.00,CLR,,0.00,WeatherDisplay:10.37,2013-10-30 05:02:00,
2013-10-29 21:07:00,39.9,26.3,29.41,East,82,8.6,13.1,58,0.00,CLR,,0.00,WeatherDisplay:10.37,2013-10-30 05:07:00,
2013-10-29 21:12:00,39.9,26.3,29.41,ESE,104,7.2,9.4,58,0.00,CLR,,0.00,WeatherDisplay:10.37,2013-10-30 05:12:00,
2013-10-29 21:17:00,39.8,26.6,29.41,SE,124,7.0,9.2,59,0.00,CLR,,0.00,WeatherDisplay:10.37,2013-10-30 05:17:00,
2013-10-29 21:22:00,39.8,26.6,29.40,ENE,64,5.4,10.4,59,0.00,CLR,,0.00,WeatherDisplay:10.37,2013-10-30 05:22:00,
2013-10-29 21:27:00,39.8,26.2,29.40,East,90,9.5,11.5,58,0.00,CLR,,0.00,WeatherDisplay:10.37,2013-10-30 05:27:00,
2013-10-29 21:32:00,39.8,26.6,29.40,NE,55,6.0,9.2,59,0.00,CLR,,0.00,WeatherDisplay:10.37,2013-10-30 05:32:00,
2013-10-29 21:37:00,39.5,26.3,29.40,NE,37,6.3,8.1,59,0.00,CLR,,0.00,WeatherDisplay:10.37,2013-10-30 05:37:00,
2013-10-29 21:42:00,39.3,26.6,29.40,ENE,59,4.8,6.9,60,0.00,CLR,,0.00,WeatherDisplay:10.37,2013-10-30 05:42:00,
2013-10-29 21:47:00,39.3,26.6,29.40,East,90,7.2,10.4,60,0.00,CLR,,0.00,WeatherDisplay:10.37,2013-10-30 05:47:00,
2013-10-29 21:52:00,39.3,26.6,29.40,NE,37,3.7,7.6,60,0.00,CLR,,0.00,WeatherDisplay:10.37,2013-10-30 05:52:00,
2013-10-29 21:57:00,39.2,26.5,29.39,NNE,32,7.0,9.2,60,0.00,CLR,,0.00,WeatherDisplay:10.37,2013-10-30 05:57:00,
2013-10-29 22:02:00,39.1,26.8,29.40,East,88,5.1,9.2,61,0.00,CLR,,0.00,WeatherDisplay:10.37,2013-10-30 06:02:00,
2013-10-29 22:07:00,38.8,26.5,29.39,ENE,75,5.4,9.2,61,0.00,CLR,,0.00,WeatherDisplay:10.37,2013-10-30 06:07:00,
2013-10-29 22:12:00,38.8,26.5,29.40,East,96,5.1,6.9,61,0.00,CLR,,0.00,WeatherDisplay:10.37,2013-10-30 06:12:00,
2013-10-29 22:17:00,38.7,26.4,29.40,SE,124,4.4,9.2,61,0.00,CLR,,0.00,WeatherDisplay:10.37,2013-10-30 06:17:00,
2013-10-29 22:22:00,38.5,26.2,29.39,ENE,78,7.7,9.2,61,0.00,CLR,,0.00,WeatherDisplay:10.37,2013-10-30 06:22:00,
2013-10-29 22:27:00,38.6,26.3,29.39,ESE,116,7.5,9.2,61,0.00,CLR,,0.00,WeatherDisplay:10.37,2013-10-30 06:27:00,
2013-10-29 22:32:00,38.6,26.3,29.39,East,97,5.5,8.1,61,0.00,CLR,,0.00,WeatherDisplay:10.37,2013-10-30 06:32:00,
2013-10-29 22:37:00,38.7,26.4,29.39,East,79,4.6,6.9,61,0.00,CLR,,0.00,WeatherDisplay:10.37,2013-10-30 06:37:00,
2013-10-29 22:42:00,38.7,26.4,29.38,ENE,78,6.0,9.2,61,0.00,CLR,,0.00,WeatherDisplay:10.37,2013-10-30 06:42:00,
2013-10-29 22:47:00,38.9,26.2,29.38,East,92,7.3,13.8,60,0.00,CLR,,0.00,WeatherDisplay:10.37,2013-10-30 06:47:00,
2013-10-29 22:52:00,39.0,25.9,29.37,East,80,7.9,10.0,59,0.00,CLR,,0.00,WeatherDisplay:10.37,2013-10-30 06:52:00,
2013-10-29 22:57:00,39.4,25.4,29.37,ENE,69,9.7,13.8,57,0.00,CLR,,0.00,WeatherDisplay:10.37,2013-10-30 06:57:00,
2013-10-29 23:02:00,39.5,25.9,29.37,ENE,72,9.2,12.9,58,0.00,CLR,,0.00,WeatherDisplay:10.37,2013-10-30 07:02:00,
2013-10-29 23:07:00,39.8,25.4,29.37,East,97,9.5,10.8,56,0.00,CLR,,0.00,WeatherDisplay:10.37,2013-10-30 07:07:00,
2013-10-29 23:12:00,39.9,25.5,29.37,East,95,8.2,12.7,56,0.00,CLR,,0.00,WeatherDisplay:10.37,2013-10-30 07:12:00,
2013-10-29 23:17:00,40.1,25.6,29.37,NE,49,8.0,11.9,56,0.00,CLR,,0.00,WeatherDisplay:10.37,2013-10-30 07:17:00,
2013-10-29 23:22:00,40.2,25.7,29.37,NE,52,5.4,10.4,56,0.00,CLR,,0.00,WeatherDisplay:10.37,2013-10-30 07:22:00,
2013-10-29 23:27:00,40.2,25.7,29.36,ENE,58,8.4,10.4,56,0.00,CLR,,0.00,WeatherDisplay:10.37,2013-10-30 07:27:00,
2013-10-29 23:32:00,40.3,25.4,29.36,ENE,72,9.1,12.7,55,0.00,CLR,,0.00,WeatherDisplay:10.37,2013-10-30 07:32:00,
2013-10-29 23:37:00,40.5,25.1,29.36,ESE,106,9.3,16.1,54,0.00,CLR,,0.00,WeatherDisplay:10.37,2013-10-30 07:37:00,
2013-10-29 23:42:00,40.6,25.2,29.36,East,79,12.7,13.8,54,0.00,CLR,,0.00,WeatherDisplay:10.37,2013-10-30 07:42:00,
2013-10-29 23:47:00,40.6,26.1,29.36,ESE,121,5.4,6.9,56,0.00,CLR,,0.00,WeatherDisplay:10.37,2013-10-30 07:47:00,
2013-10-29 23:52:00,40.6,25.7,29.36,NE,56,8.0,15.0,55,0.00,CLR,,0.00,WeatherDisplay:10.37,2013-10-30 07:52:00,
2013-10-29 23:57:00,40.6,25.7,29.36,East,86,13.3,13.8,55,0.00,CLR,,0.00,WeatherDisplay:10.37,2013-10-30 07:57:00,